Location: Emporia
(38.4040°N, 96.1810°W)
Time: 11:18:50
(UTC-05:00)

Amateur Radio Satellites - All Passes

Search period start: 29 June 2016 10:48
Search period end: 30 June 2016 10:48
Location: Emporia, 38.4040°N, 96.1810°W

Satellite Date Start Highest point End Downlink Frequencies (MHz)
Time Altitude Azimuth
CINEMA 3 29 Jun 10:52:59 10:55:04 13° 295° (WNW) 10:57:11 145.822/145.860
ANTELSAT 29 Jun 10:53:43 10:57:59 74° 76° (ENE) 11:02:23 437.575/2403.000
AAUSAT CUBESAT 2 29 Jun 10:55:53 10:59:19 25° 290° (WNW) 11:02:44 437.432
PCSat 29 Jun 10:58:56 11:03:19 24° 50° (NE) 11:07:40 145.827
DELFI C3 29 Jun 11:00:23 11:04:20 58° 100° (E) 11:08:14 145.870
ZACube-1 29 Jun 11:05:42 11:10:11 58° 285° (WNW) 11:14:41 437.345
BEESAT 3 29 Jun 11:05:59 11:08:50 19° 48° (NE) 11:11:39 437.485
M-CUBED/EXP-1 PRIME 29 Jun 11:12:38 11:16:16 37° 292° (WNW) 11:20:10 437.505
Oscar 11 29 Jun 11:14:20 11:18:27 42° 287° (WNW) 11:22:32 145.826/435.025
JAS-2 29 Jun 11:14:59 11:16:38 11° 56° (NE) 11:18:15 435.910
FUNcube-1 29 Jun 11:23:01 11:27:16 40° 288° (WNW) 11:31:31 145.935
UWE-3 29 Jun 11:29:18 11:32:53 23° 292° (WNW) 11:36:31 435.000/436.395/437.385
ISS 29 Jun 11:30:51 11:31:30 10° 347° (NNW) 11:32:08 145.825
BUGSAT 1 29 Jun 11:32:30 11:33:53 12° 64° (ENE) 11:35:15 437.445
Cosmos 2491 29 Jun 11:38:07 11:45:54 35° 72° (ENE) 11:53:39 435.465 / 435.565
BEESAT 2 29 Jun 11:45:07 11:48:30 25° 51° (NE) 11:51:51 435.950
TIGRISAT 29 Jun 11:45:47 11:49:31 29° 264° (W) 11:53:21 435.000
HO-68 29 Jun 11:48:46 11:52:04 14° 307° (NW) 11:55:21 435.675
UNISAT 6 29 Jun 11:51:31 11:55:01 24° 265° (W) 11:58:35 437.425
NANOSAT C BR1 29 Jun 11:52:20 11:56:22 50° 73° (ENE) 12:00:25 145.865
QB50P1 29 Jun 11:55:45 11:59:51 58° 75° (ENE) 12:03:59 145.935-145.965
PHONESAT 2.4 29 Jun 11:57:43 12:00:39 41° 204° (SSW) 12:03:34 2401.200-2431.200
POPSAT HIP 1 29 Jun 11:59:02 12:03:10 63° 74° (ENE) 12:07:19 437.405
AUBIESAT-1 29 Jun 12:08:50 12:10:23 12° 299° (WNW) 12:11:59 437.475
QB50P2 29 Jun 12:11:30 12:15:42 84° 259° (W) 12:19:56 145.880/145.840
HUMSAT D 29 Jun 12:11:44 12:15:51 44° 287° (WNW) 12:19:56 437.325/437.525
DUCHIFAT 1 29 Jun 12:12:20 12:16:29 83° 79° (E) 12:20:41 145.980
POLYITAN 1 29 Jun 12:14:09 12:18:20 82° 258° (WSW) 12:22:33 437.675
RS-15 29 Jun 12:15:46 12:26:57 70° 114° (ESE) 12:38:48 29.354- 29.394
ESTCUBE 1 29 Jun 12:16:16 12:20:17 31° 97° (E) 12:24:15 437.505/2401.250
AISAT 29 Jun 12:17:24 12:20:39 20° 95° (E) 12:23:54 437.250
DX 1 29 Jun 12:34:14 12:37:38 22° 95° (E) 12:41:01 434.975-435.025
DELFI C3 29 Jun 12:38:05 12:38:39 10° 296° (WNW) 12:39:12 145.870
PCSat 29 Jun 12:41:44 12:46:56 48° 248° (WSW) 12:52:07 145.827
BEESAT 3 29 Jun 12:42:58 12:46:38 38° 245° (WSW) 12:50:18 437.485
JAS-2 29 Jun 12:52:59 13:00:31 62° 72° (ENE) 13:07:23 435.910
50 SAT 29 Jun 13:00:57 13:04:38 72° 103° (ESE) 13:08:16 437.505
CUBEBUG 1 29 Jun 13:01:28 13:05:46 68° 102° (ESE) 13:10:04 437.445
BUGSAT 1 29 Jun 13:04:52 13:08:47 52° 259° (W) 13:12:43 437.445
VELOX 1 29 Jun 13:11:53 13:16:18 81° 104° (ESE) 13:20:41 145.980
O/OREOS (USA 219) 29 Jun 13:14:55 13:19:25 77° 69° (ENE) 13:23:54 437.305
YUBILEINY 29 Jun 13:16:42 13:25:15 65° 92° (E) 13:33:53 435.215
BEESAT 2 29 Jun 13:22:56 13:26:15 26° 247° (WSW) 13:29:35 435.950
TISAT 1 29 Jun 13:30:47 13:32:37 13° 92° (E) 13:34:28 437.305
NANOSAT C BR1 29 Jun 13:30:48 13:32:22 12° 269° (W) 13:33:57 145.865
Cosmos 2491 29 Jun 13:34:41 13:42:53 48° 271° (W) 13:51:06 435.465 / 435.565
QB50P1 29 Jun 13:35:37 13:35:59 10° 269° (W) 13:36:21 145.935-145.965
Oscar 19 29 Jun 13:42:15 13:47:15 54° 72° (ENE) 13:52:16 437.125/150
SPROUT 29 Jun 13:47:34 13:51:53 90° 100° (E) 13:56:10 437.525
UKube-1 29 Jun 13:47:55 13:52:12 64° 285° (WNW) 13:56:26 .
Cosmos 2504 29 Jun 13:50:45 13:57:43 33° 84° (E) 14:05:03 435.465 / 435.565
AISAT 29 Jun 13:53:14 13:57:11 33° 289° (WNW) 14:01:06 437.250
ESTCUBE 1 29 Jun 13:53:24 13:56:54 23° 292° (WNW) 14:00:23 437.505/2401.250
Gurwin Techsat 1B 29 Jun 14:06:54 14:11:50 40° 70° (ENE) 14:16:46 435.225
ITAMSAT 1 29 Jun 14:09:18 14:12:13 15° 62° (ENE) 14:15:09 435.822/435.867
DX 1 29 Jun 14:10:03 14:13:48 29° 290° (WNW) 14:17:32 434.975-435.025
AIST 2 29 Jun 14:12:10 14:16:13 49° 56° (NE) 14:20:15 435.215
SWISSCUBE 29 Jun 14:25:21 14:26:27 11° 90° (E) 14:27:32 437.505
RS-15 29 Jun 14:29:50 14:40:20 38° 319° (NW) 14:51:25 29.354- 29.394
JAS-2 29 Jun 14:39:43 14:45:44 25° 266° (W) 14:51:25 435.910
AO-7 29 Jun 14:40:05 14:46:25 25° 56° (NE) 14:52:46 29.400- 29.500
CUBEBUG 1 29 Jun 14:40:41 14:41:28 10° 297° (WNW) 14:42:16 437.445
ISS 29 Jun 14:44:00 14:46:39 22° 28° (NNE) 14:49:18 145.825
BEESAT 29 Jun 14:48:35 14:51:52 18° 93° (E) 14:55:08 436.000
ITUPSAT 1 29 Jun 14:50:14 14:53:35 19° 94° (E) 14:56:55 437.325
TISAT 1 29 Jun 15:04:28 15:08:31 48° 287° (WNW) 15:12:35 437.305
YUBILEINY 29 Jun 15:15:44 15:22:40 26° 292° (WNW) 15:29:42 435.215
SO-50 29 Jun 15:19:37 15:23:22 22° 111° (ESE) 15:27:07 436.795
Oscar 19 29 Jun 15:23:40 15:26:52 16° 268° (W) 15:30:04 437.125/150
JUGNU 29 Jun 15:42:18 15:43:02 10° 171° (S) 15:43:45 437.505
Cosmos 2504 29 Jun 15:42:51 15:50:39 50° 284° (WNW) 15:59:02 435.465 / 435.565
ITAMSAT 1 29 Jun 15:45:55 15:51:05 66° 258° (WSW) 15:56:19 435.822/435.867
Gurwin Techsat 1B 29 Jun 15:47:40 15:51:52 24° 265° (W) 15:56:06 435.225
AIST 2 29 Jun 15:52:09 15:54:16 14° 251° (WSW) 15:56:22 435.215
SWISSCUBE 29 Jun 15:59:55 16:04:42 71° 286° (WNW) 16:09:26 437.505
ISS 29 Jun 16:20:05 16:23:14 43° 224° (SW) 16:26:20 145.825
BEESAT 29 Jun 16:25:17 16:29:49 43° 289° (WNW) 16:34:19 436.000
ITUPSAT 1 29 Jun 16:27:03 16:31:35 42° 289° (WNW) 16:36:05 437.325
AO-7 29 Jun 16:30:04 16:38:22 75° 254° (WSW) 16:46:46 29.400- 29.500
AIST 1 29 Jun 16:49:42 16:52:43 19° 88° (E) 16:55:44
RS-15 29 Jun 16:50:07 16:57:53 19° 353° (N) 17:05:48 29.354- 29.394
MOZHAYETS 4 29 Jun 16:54:43 16:59:08 43° 98° (E) 17:03:31
KKS-1 29 Jun 16:56:36 17:00:54 47° 99° (E) 17:05:12 437.445
SO-50 29 Jun 16:58:55 17:03:34 43° 307° (NW) 17:08:14 436.795
HORYU 2 29 Jun 17:18:17 17:22:38 64° 74° (ENE) 17:27:02 437.375
NOAA 15 29 Jun 17:21:32 17:24:41 16° 62° (ENE) 17:27:50 137.62
GONETS M04 29 Jun 17:23:42 17:27:46 14° 76° (ENE) 17:31:50
STARS 29 Jun 17:25:45 17:30:02 49° 100° (E) 17:34:19 437.465
JUGNU 29 Jun 17:28:50 17:31:08 12° 181° (S) 17:33:27 437.505
LilacSat-2 29 Jun 17:56:57 17:59:07 15° 67° (ENE) 18:01:19 437.200
Cubesat XI-IV 29 Jun 18:01:15 18:05:39 27° 66° (ENE) 18:10:05 437.490
NOAA 18 29 Jun 18:04:30 18:09:19 33° 67° (ENE) 18:14:10 137.9125
BRITE-PL 29 Jun 18:05:27 18:10:02 36° 72° (ENE) 18:14:18 437.365/2234.400
Cosmos 2499 29 Jun 18:24:12 18:30:46 27° 82° (E) 18:37:36 435.465 / 435.565
CUBESAT XI-V 29 Jun 18:25:20 18:29:46 45° 99° (E) 18:34:09 437.345
AIST 1 29 Jun 18:26:13 18:30:04 31° 283° (WNW) 18:33:54
AO-7 29 Jun 18:29:22 18:32:22 12° 271° (W) 18:35:22 29.400- 29.500
MOZHAYETS 4 29 Jun 18:32:49 18:35:57 18° 294° (WNW) 18:39:04
GOMX 1 29 Jun 18:33:46 18:37:44 29° 71° (ENE) 18:41:31 467.674
CUTE-I 29 Jun 18:34:17 18:39:28 54° 72° (ENE) 18:44:42 437.470
KKS-1 29 Jun 18:34:28 18:37:05 15° 295° (WNW) 18:39:39 437.445
HO-68 29 Jun 18:42:21 18:45:19 13° 53° (NE) 18:48:17 435.675
SRMSAT 29 Jun 18:45:55 18:47:57 12° 176° (S) 18:49:58 437.500
CUSAT 1 29 Jun 18:55:51 18:59:07 38° 75° (ENE) 19:01:49 437.405
NOAA 15 29 Jun 18:58:39 19:03:54 64° 258° (WSW) 19:09:10 137.62
HORYU 2 29 Jun 18:58:47 18:59:35 10° 269° (W) 19:00:23 437.375
STARS 29 Jun 19:03:32 19:05:58 15° 295° (WNW) 19:08:23 437.465
RS-15 29 Jun 19:06:43 19:16:36 27° 29° (NNE) 19:26:29 29.354- 29.394
GONETS M04 29 Jun 19:14:26 19:23:09 83° 94° (E) 19:31:52
DOVE 4 29 Jun 19:27:43 19:31:53 49° 74° (ENE) 19:35:56 437.250
DANDE 29 Jun 19:29:14 19:33:40 39° 73° (ENE) 19:37:02 436.750
LilacSat-2 29 Jun 19:29:41 19:33:07 34° 263° (W) 19:36:36 437.200
CUTE 1.7 + AOD 2 29 Jun 19:33:11 19:35:21 14° 65° (ENE) 19:37:31 437.475
SEEDS 29 Jun 19:36:43 19:37:13 10° 63° (ENE) 19:37:41 437.485
Cubesat XI-IV 29 Jun 19:40:38 19:45:32 37° 262° (W) 19:50:29 437.490
BRITE-PL 29 Jun 19:44:36 19:48:31 22° 265° (W) 19:52:15 437.365/2234.400
NOAA 18 29 Jun 19:45:09 19:49:55 31° 263° (W) 19:54:43 137.9125
CUBESAT XI-V 29 Jun 20:03:49 20:06:45 17° 294° (WNW) 20:09:41 437.345
CUBEBUG 2 29 Jun 20:07:04 20:07:30 10° 63° (ENE) 20:07:56 437.445
AAUSAT CUBESAT 2 29 Jun 20:10:29 20:12:39 14° 66° (ENE) 20:14:51 437.432
GOMX 1 29 Jun 20:12:08 20:15:48 23° 264° (W) 20:19:19 467.674
CINEMA 3 29 Jun 20:14:29 20:18:24 43° 73° (ENE) 20:22:21 145.822/145.860
STRAND 1 29 Jun 20:14:55 20:19:47 41° 99° (E) 20:24:36 437.568
Cosmos 2499 29 Jun 20:14:56 20:23:07 63° 281° (W) 20:31:52 435.465 / 435.565
CUTE-I 29 Jun 20:16:20 20:19:49 17° 268° (W) 20:23:19 437.470
HO-68 29 Jun 20:24:40 20:31:46 71° 71° (ENE) 20:38:55 435.675
M-CUBED/EXP-1 PRIME 29 Jun 20:25:57 20:27:26 13° 62° (ENE) 20:28:55 437.505
SRMSAT 29 Jun 20:34:35 20:36:12 11° 186° (S) 20:37:49 437.500
Oscar 11 29 Jun 20:34:45 20:35:44 11° 63° (ENE) 20:36:43 145.826/435.025
FUNcube-1 29 Jun 20:43:45 20:45:06 11° 63° (ENE) 20:46:27 145.935
COMPASS 1 29 Jun 20:43:47 20:47:44 41° 73° (ENE) 20:51:44 437.405
CANX-2 29 Jun 20:46:40 20:50:56 75° 258° (WSW) 20:55:16 2200.000
UWE-3 29 Jun 20:48:45 20:51:55 21° 68° (ENE) 20:55:09 435.000/436.395/437.385
AO-85 29 Jun 20:50:17 20:54:25 22° 110° (ESE) 20:58:28 145.980
PRISM 29 Jun 20:56:25 20:58:25 13° 93° (E) 21:00:25 437.425
CUTE 1.7 + AOD 2 29 Jun 21:06:35 21:10:44 50° 261° (W) 21:14:55 437.475
SEEDS 29 Jun 21:08:05 21:12:18 68° 259° (W) 21:16:34 437.485
DOVE 4 29 Jun 21:08:06 21:09:50 12° 268° (W) 21:11:33 437.250
DANDE 29 Jun 21:14:22 21:15:34 11° 281° (W) 21:16:41 436.750
GONETS M04 29 Jun 21:15:12 21:21:02 19° 295° (WNW) 21:26:53
AUBIESAT-1 29 Jun 21:17:56 21:21:07 50° 69° (ENE) 21:24:21 437.475
RS-15 29 Jun 21:19:18 21:31:43 74° 57° (ENE) 21:43:56 29.354- 29.394
CUBEBUG 2 29 Jun 21:39:23 21:43:30 66° 259° (W) 21:47:45 437.445
AAUSAT CUBESAT 2 29 Jun 21:43:41 21:47:43 46° 261° (W) 21:51:48 437.432
DELFI C3 29 Jun 21:44:58 21:48:23 27° 71° (ENE) 21:51:50 145.870
CINEMA 3 29 Jun 21:53:52 21:55:48 13° 268° (W) 21:57:44 145.822/145.860
STRAND 1 29 Jun 21:54:42 21:58:40 23° 294° (WNW) 22:02:36 437.568
M-CUBED/EXP-1 PRIME 29 Jun 21:58:51 22:01:45 29° 257° (WSW) 22:04:39 437.505
ZACube-1 29 Jun 21:59:43 22:03:55 89° 251° (WSW) 22:08:15 437.345
Oscar 11 29 Jun 22:06:57 22:11:15 68° 259° (WSW) 22:15:37 145.826/435.025
HO-68 29 Jun 22:15:09 22:20:02 20° 268° (W) 22:24:59 435.675
Cosmos 2499 29 Jun 22:15:58 22:18:17 11° 303° (WNW) 22:20:39 435.465 / 435.565
FUNcube-1 29 Jun 22:16:38 22:20:46 60° 260° (W) 22:25:01 145.935
COMPASS 1 29 Jun 22:21:06 22:23:28 15° 268° (W) 22:25:52 437.405
UWE-3 29 Jun 22:24:33 22:28:12 29° 264° (W) 22:31:56 435.000/436.395/437.385
AO-85 29 Jun 22:29:20 22:34:37 50° 305° (NW) 22:39:44 145.980
PRISM 29 Jun 22:30:04 22:33:56 42° 288° (WNW) 22:37:46 437.425
ANTELSAT 29 Jun 22:47:35 22:50:51 19° 93° (E) 22:54:07 437.575/2403.000
HUMSAT D 29 Jun 23:00:54 23:05:04 81° 258° (WSW) 23:09:19 437.325/437.525
AISAT 29 Jun 23:14:06 23:16:46 16° 65° (ENE) 23:19:25 437.250
ESTCUBE 1 29 Jun 23:14:31 23:18:13 25° 68° (ENE) 23:21:55 437.505/2401.250
DELFI C3 29 Jun 23:20:12 23:23:13 20° 266° (W) 23:26:16 145.870
DX 1 29 Jun 23:28:58 23:31:47 17° 66° (ENE) 23:34:35 434.975-435.025
YUBILEINY 29 Jun 23:29:14 23:36:43 30° 70° (ENE) 23:44:08 435.215
RS-15 29 Jun 23:33:02 23:43:08 32° 257° (WSW) 23:53:09 29.354- 29.394
50 SAT 29 Jun 23:37:36 23:40:41 25° 71° (ENE) 23:43:46 437.505
TIGRISAT 29 Jun 23:37:42 23:42:20 61° 101° (ESE) 23:46:58 435.000
UNISAT 6 29 Jun 23:43:18 23:47:58 76° 103° (ESE) 23:52:40 437.425
QB50P1 29 Jun 23:44:36 23:45:31 11° 91° (E) 23:46:26 145.935-145.965
POPSAT HIP 1 29 Jun 23:47:28 23:48:55 11° 91° (E) 23:50:21 437.405
Cosmos 2504 29 Jun 23:48:28 23:50:11 11° 57° (ENE) 23:51:53 435.465 / 435.565
SO-50 29 Jun 23:52:32 23:55:21 16° 43° (NE) 23:58:07 436.795
CUBEBUG 1 29 Jun 23:55:46 23:59:55 45° 73° (ENE) 00:04:05 437.445
QB50P2 29 Jun 23:58:54 00:01:46 17° 94° (E) 00:04:39 145.880/145.840
DUCHIFAT 1 29 Jun 23:59:20 00:01:42 15° 93° (E) 00:04:03 145.980
POLYITAN 1 30 Jun 00:01:28 00:04:25 18° 94° (E) 00:07:21 437.675
VELOX 1 30 Jun 00:07:27 00:11:46 58° 74° (ENE) 00:16:06 145.980
ANTELSAT 30 Jun 00:23:18 00:27:41 41° 288° (WNW) 00:32:04 437.575/2403.000
Cosmos 2491 30 Jun 00:37:19 00:45:21 42° 87° (E) 00:53:22 435.465 / 435.565
SPROUT 30 Jun 00:39:25 00:43:33 54° 74° (ENE) 00:47:42 437.525
UKube-1 30 Jun 00:40:32 00:44:51 86° 71° (ENE) 00:49:11 .
BUGSAT 1 30 Jun 00:48:22 00:51:41 23° 96° (E) 00:55:00 437.445
AISAT 30 Jun 00:48:39 00:52:51 44° 261° (W) 00:57:05 437.250
ESTCUBE 1 30 Jun 00:50:57 00:54:53 29° 264° (W) 00:58:50 437.505/2401.250
DX 1 30 Jun 01:03:33 01:07:38 40° 261° (W) 01:11:45 434.975-435.025
50 SAT 30 Jun 01:11:40 01:14:19 19° 265° (W) 01:17:00 437.505
NANOSAT C BR1 30 Jun 01:13:32 01:17:46 69° 285° (WNW) 01:21:59 145.865
TIGRISAT 30 Jun 01:16:11 01:18:29 14° 296° (WNW) 01:20:46 435.000
QB50P1 30 Jun 01:17:26 01:21:38 58° 286° (WNW) 01:25:49 145.935-145.965
POPSAT HIP 1 30 Jun 01:20:50 01:25:00 54° 286° (WNW) 01:29:09 437.405
UNISAT 6 30 Jun 01:22:40 01:24:02 11° 297° (WNW) 01:25:25 437.425
YUBILEINY 30 Jun 01:25:20 01:33:56 58° 269° (W) 01:42:29 435.215
SWISSCUBE 30 Jun 01:30:28 01:32:13 12° 62° (ENE) 01:33:59 437.505
SO-50 30 Jun 01:31:44 01:36:22 70° 241° (WSW) 01:40:49 436.795
DUCHIFAT 1 30 Jun 01:33:33 01:37:34 42° 287° (WNW) 01:41:34 145.980
QB50P2 30 Jun 01:33:46 01:37:40 36° 288° (WNW) 01:41:35 145.880/145.840
CUBEBUG 1 30 Jun 01:34:05 01:36:25 14° 268° (W) 01:38:45 437.445
POLYITAN 1 30 Jun 01:36:24 01:40:18 35° 288° (WNW) 01:44:12 437.675
Cosmos 2504 30 Jun 01:36:54 01:45:41 60° 79° (E) 01:53:59 435.465 / 435.565
PCSat 30 Jun 01:39:18 01:43:46 27° 108° (ESE) 01:48:15 145.827
VELOX 1 30 Jun 01:47:06 01:48:34 11° 269° (W) 01:50:02 145.980
JAS-2 30 Jun 01:50:13 01:55:38 53° 100° (E) 02:00:41 435.910
O/OREOS (USA 219) 30 Jun 01:51:05 01:51:15 10° 97° (E) 01:51:25 437.305
BEESAT 30 Jun 01:53:49 01:57:07 19° 65° (ENE) 02:00:25 436.000
TISAT 1 30 Jun 01:54:09 01:58:18 83° 258° (WSW) 02:02:29 437.305
ITUPSAT 1 30 Jun 01:55:47 01:59:10 19° 65° (ENE) 02:02:33 437.325
Oscar 19 30 Jun 01:56:03 01:59:54 21° 94° (E) 02:03:43 437.125/150
SPROUT 30 Jun 02:18:27 02:19:48 11° 269° (W) 02:21:10 437.525
BUGSAT 1 30 Jun 02:23:35 02:26:59 25° 290° (WNW) 02:30:24 437.445
Gurwin Techsat 1B 30 Jun 02:25:31 02:29:03 18° 93° (E) 02:32:32 435.225
BEESAT 3 30 Jun 02:31:45 02:35:30 47° 116° (ESE) 02:39:18 437.485
Cosmos 2491 30 Jun 02:34:04 02:42:08 40° 286° (WNW) 02:50:14 435.465 / 435.565
SWISSCUBE 30 Jun 03:04:35 03:09:21 74° 256° (WSW) 03:14:11 437.505
BEESAT 2 30 Jun 03:12:33 03:16:28 76° 120° (ESE) 03:20:28 435.950
PCSat 30 Jun 03:21:52 03:26:56 40° 304° (NW) 03:32:03 145.827
O/OREOS (USA 219) 30 Jun 03:25:33 03:30:01 66° 292° (WNW) 03:34:29 437.305
BEESAT 30 Jun 03:29:59 03:34:32 44° 261° (W) 03:39:08 436.000
Cosmos 2504 30 Jun 03:31:17 03:38:22 28° 278° (W) 03:45:13 435.465 / 435.565
ITUPSAT 1 30 Jun 03:32:06 03:36:39 43° 261° (W) 03:41:15 437.325
Oscar 19 30 Jun 03:34:33 03:39:21 42° 290° (WNW) 03:44:09 437.125/150
JAS-2 30 Jun 03:36:36 03:40:11 18° 299° (WNW) 03:43:37 435.910
KKS-1 30 Jun 03:53:11 03:57:14 36° 71° (ENE) 04:01:17 437.445
MOZHAYETS 4 30 Jun 03:55:03 03:59:12 34° 71° (ENE) 04:03:24
ITAMSAT 1 30 Jun 04:00:19 04:05:24 50° 100° (E) 04:10:26 435.822/435.867
Gurwin Techsat 1B 30 Jun 04:04:06 04:09:17 53° 288° (WNW) 04:14:26 435.225
AIST 2 30 Jun 04:09:57 04:12:14 15° 109° (ESE) 04:14:32 435.215
BEESAT 3 30 Jun 04:10:59 04:13:26 16° 313° (NW) 04:15:53 437.485
STARS 30 Jun 04:20:57 04:24:54 36° 71° (ENE) 04:28:54 437.465
AO-7 30 Jun 04:33:37 04:41:27 42° 100° (E) 04:49:13 29.400- 29.500
AIST 1 30 Jun 04:34:08 04:38:17 50° 80° (E) 04:42:25
BEESAT 2 30 Jun 04:53:26 04:54:49 11° 317° (NW) 04:56:12 435.950
HORYU 2 30 Jun 05:12:18 05:14:35 14° 92° (E) 05:16:51 437.375
AO-85 30 Jun 05:24:24 05:26:27 13° 40° (NE) 05:28:26 145.980
GONETS M04 30 Jun 05:26:52 05:34:52 38° 74° (ENE) 05:42:51
CUBESAT XI-V 30 Jun 05:26:58 05:31:18 38° 71° (ENE) 05:35:37 437.345
KKS-1 30 Jun 05:30:48 05:33:54 19° 266° (W) 05:37:00 437.445
MOZHAYETS 4 30 Jun 05:32:53 05:36:25 21° 266° (W) 05:39:59
ITAMSAT 1 30 Jun 05:40:46 05:44:28 20° 296° (WNW) 05:48:08 435.822/435.867
AIST 2 30 Jun 05:46:21 05:50:18 45° 305° (NW) 05:54:18 435.215
STARS 30 Jun 05:58:22 06:01:22 18° 266° (W) 06:04:23 437.465
PHONESAT 2.4 30 Jun 06:04:25 06:06:52 22° 150° (SSE) 06:09:19 2401.200-2431.200
Cosmos 2499 30 Jun 06:08:25 06:16:49 47° 76° (ENE) 06:24:38 435.465 / 435.565
AIST 1 30 Jun 06:14:02 06:15:21 11° 275° (W) 06:16:41
CUSAT 1 30 Jun 06:16:31 06:18:28 11° 84° (E) 06:20:22 437.405
Cubesat XI-IV 30 Jun 06:22:05 06:23:33 11° 89° (E) 06:25:00 437.490
AO-7 30 Jun 06:26:25 06:34:08 43° 297° (WNW) 06:41:50 29.400- 29.500
NOAA 18 30 Jun 06:29:04 06:32:13 15° 92° (E) 06:35:23 137.9125
HORYU 2 30 Jun 06:47:02 06:51:24 51° 287° (WNW) 06:55:45 437.375
CUTE-I 30 Jun 06:53:26 06:57:46 24° 95° (E) 07:02:04 437.470
DANDE 30 Jun 06:53:27 06:56:55 13° 81° (E) 07:00:16 436.750
AO-85 30 Jun 07:03:09 07:07:37 82° 243° (WSW) 07:11:42 145.980
LilacSat-2 30 Jun 07:04:26 07:07:44 26° 96° (E) 07:11:02 437.200
CUBESAT XI-V 30 Jun 07:05:19 07:08:46 20° 266° (W) 07:12:13 437.345
NOAA 15 30 Jun 07:15:18 07:20:27 54° 100° (E) 07:25:34 137.62
GONETS M04 30 Jun 07:23:38 07:31:42 44° 272° (W) 07:39:48
ISS 30 Jun 07:24:16 07:25:24 11° 128° (SE) 07:26:32 145.825
DOVE 4 30 Jun 07:28:32 07:31:04 15° 93° (E) 07:33:39 437.250
STRAND 1 30 Jun 07:29:09 07:34:07 51° 72° (ENE) 07:39:06 437.568
PHONESAT 2.4 30 Jun 07:40:10 07:43:15 87° 346° (NNW) 07:46:19 2401.200-2431.200
BRITE-PL 30 Jun 07:49:30 07:53:35 58° 285° (WNW) 07:57:44 437.365/2234.400
CUSAT 1 30 Jun 07:52:06 07:59:52 72° 96° (E) 08:06:22 437.405
HO-68 30 Jun 07:56:55 08:00:04 13° 89° (E) 08:03:13 435.675
Cubesat XI-IV 30 Jun 07:58:47 08:04:12 82° 284° (WNW) 08:09:34 437.490
Cosmos 2499 30 Jun 08:02:00 08:09:36 35° 275° (W) 08:16:47 435.465 / 435.565
NOAA 18 30 Jun 08:07:48 08:13:18 66° 287° (WNW) 08:18:47 137.9125
CINEMA 3 30 Jun 08:11:30 08:13:43 13° 92° (E) 08:15:56 145.822/145.860
GOMX 1 30 Jun 08:13:39 08:17:54 75° 283° (WNW) 08:22:19 467.674
DANDE 30 Jun 08:30:20 08:38:43 72° 96° (E) 08:46:25 436.750
CUTE-I 30 Jun 08:32:55 08:37:53 40° 291° (WNW) 08:42:51 437.470
CANX-2 30 Jun 08:33:59 08:37:14 21° 94° (E) 08:40:26 2200.000
LilacSat-2 30 Jun 08:39:00 08:41:52 20° 291° (WNW) 08:44:44 437.200
CUTE 1.7 + AOD 2 30 Jun 08:53:11 08:56:59 30° 96° (E) 09:00:42 437.475
SEEDS 30 Jun 08:54:10 08:57:27 21° 94° (E) 09:00:41 437.485
NOAA 15 30 Jun 08:56:18 08:59:46 18° 297° (WNW) 09:03:14 137.62
ISS 30 Jun 08:58:12 09:01:26 65° 323° (NW) 09:04:41 145.825
DOVE 4 30 Jun 09:04:45 09:08:56 46° 286° (WNW) 09:13:20 437.250
STRAND 1 30 Jun 09:10:10 09:13:33 18° 267° (W) 09:16:56 437.568
PHONESAT 2.4 30 Jun 09:16:58 09:19:59 55° 2° (N) 09:23:00 2401.200-2431.200
PRISM 30 Jun 09:17:21 09:21:31 77° 259° (WSW) 09:25:40 437.425
AAUSAT CUBESAT 2 30 Jun 09:27:40 09:31:17 28° 96° (E) 09:34:52 437.432
CUBEBUG 2 30 Jun 09:31:29 09:35:34 29° 96° (E) 09:39:40 437.445
CUSAT 1 30 Jun 09:36:49 09:42:11 21° 289° (WNW) 09:46:58 437.405
M-CUBED/EXP-1 PRIME 30 Jun 09:38:48 09:41:21 16° 100° (E) 09:43:59 437.505
HO-68 30 Jun 09:41:26 09:48:41 85° 106° (ESE) 09:55:54 435.675
Cubesat XI-IV 30 Jun 09:42:32 09:43:22 10° 302° (WNW) 09:44:13 437.490
ANTELSAT 30 Jun 09:46:19 09:48:22 13° 64° (ENE) 09:50:26 437.575/2403.000
CINEMA 3 30 Jun 09:46:34 09:51:06 58° 285° (WNW) 09:55:48 145.822/145.860
ZACube-1 30 Jun 09:50:04 09:53:30 21° 94° (E) 09:56:56 437.345
Oscar 11 30 Jun 09:56:10 09:59:44 24° 95° (E) 10:03:14 145.826/435.025
COMPASS 1 30 Jun 10:03:15 10:07:27 82° 283° (WNW) 10:11:36 437.405
FUNcube-1 30 Jun 10:06:09 10:10:07 29° 96° (E) 10:14:06 145.935
CANX-2 30 Jun 10:09:20 10:13:05 30° 289° (WNW) 10:16:48 2200.000
UWE-3 30 Jun 10:14:31 10:19:06 59° 101° (E) 10:23:42 435.000/436.395/437.385
DANDE 30 Jun 10:15:25 10:21:59 25° 290° (WNW) 10:28:08 436.750
PCSat 30 Jun 10:28:32 10:32:16 18° 47° (NE) 10:35:58 145.827
CUTE 1.7 + AOD 2 30 Jun 10:29:22 10:32:37 21° 292° (WNW) 10:35:51 437.475
SEEDS 30 Jun 10:29:29 10:33:08 28° 289° (WNW) 10:36:44 437.485
AUBIESAT-1 30 Jun 10:30:58 10:34:56 53° 105° (ESE) 10:39:09 437.475
TIGRISAT 30 Jun 10:34:59 10:39:02 42° 72° (ENE) 10:43:11 435.000
ISS 30 Jun 10:36:40 10:38:24 14° 341° (NNW) 10:40:08 145.825
